Location: Kosice
(48.7167°N, 21.2500°E)
Time: 02:05:06
(UTC+01:00)

ISS - Pass Details

Date: 01 February 2021
Orbit: 417 x 422 km, 51.6° (Epoch: 06 March)

Event Time Altitude Azimuth Distance (km) Brightness Sun altitude
Rises 17:16:51 0° 287° (WNW) 2,375 1.1 -7.5°
Reaches altitude 10° 17:18:59 10° 291° (WNW) 1,510 -0.1 -7.9°
Maximum altitude 17:22:20 61° 13° (NNE) 482 -3.6 -8.4°
Enters shadow 17:25:33 11° 94° (E) 1,445 -1.6 -8.9°
